This is the latest recevied weather packets stored in our database for station/object DO1TOB-60. If no packets are shown the sender has not sent any weather packets the latest 1 day(s).
| Time | Temp. | Humidity | Pressure | Rain* | Wind** | Luminosity | Snow |
|---|---|---|---|---|---|---|---|
| 1777986808 | 15.56° C | 86% | 1008.8 hPa | 0 mm | 3.13 m/s, 332° | - | - |
| 1777986747 | 15.56° C | 85% | 1008.8 hPa | 0 mm | 3.58 m/s, 312° | - | - |
| 1777986687 | 16.11° C | 85% | 1008.8 hPa | 0 mm | 2.68 m/s, 341° | - | - |
| 1777986627 | 16.11° C | 85% | 1008.8 hPa | 0 mm | 4.02 m/s, 321° | - | - |
| 1777986567 | 16.11° C | 85% | 1008.8 hPa | 0 mm | 3.13 m/s, 327° | - | - |
| 1777986507 | 16.11° C | 84% | 1008.8 hPa | 0 mm | 2.24 m/s, 342° | - | - |
| 1777986448 | 16.11° C | 84% | 1008.8 hPa | 0 mm | 1.79 m/s, 345° | - | - |
| 1777986388 | 16.11° C | 84% | 1008.8 hPa | 0 mm | 1.79 m/s, 337° | - | - |
| 1777986327 | 16.11° C | 84% | 1008.9 hPa | 0 mm | 1.79 m/s, 333° | - | - |
| 1777986267 | 16.11° C | 84% | 1008.9 hPa | 0 mm | 3.13 m/s, 347° | - | - |
| 1777986207 | 16.11° C | 84% | 1008.9 hPa | 0 mm | 0.89 m/s, 329° | - | - |
| 1777986147 | 16.11° C | 84% | 1008.9 hPa | 0 mm | 2.68 m/s, 321° | - | - |
| 1777986087 | 16.11° C | 84% | 1008.9 hPa | 0 mm | 1.79 m/s, 331° | - | - |
| 1777986027 | 16.11° C | 84% | 1009 hPa | 0 mm | 1.79 m/s, 329° | - | - |
| 1777985967 | 16.11° C | 83% | 1008.9 hPa | 0 mm | 2.24 m/s, 326° | - | - |
| 1777985907 | 16.11° C | 83% | 1009 hPa | 0 mm | 0.89 m/s, 336° | - | - |
| 1777985847 | 16.11° C | 83% | 1009 hPa | 0 mm | 1.34 m/s, 318° | - | - |
| 1777985788 | 16.11° C | 83% | 1009 hPa | 0 mm | 1.34 m/s, 327° | - | - |
| 1777985727 | 16.11° C | 83% | 1009 hPa | 0 mm | 1.79 m/s, 330° | - | - |
| 1777985548 | 16.11° C | 83% | 1009 hPa | 0 mm | 1.34 m/s, 327° | - | - |
| 1777985487 | 16.11° C | 83% | 1009 hPa | 0 mm | 1.79 m/s, 326° | - | - |
| 1777985427 | 16.11° C | 83% | 1009 hPa | 0 mm | 1.34 m/s, 317° | - | - |
| 1777985367 | 16.11° C | 82% | 1009 hPa | 0 mm | 1.79 m/s, 316° | - | - |
| 1777985307 | 16.67° C | 82% | 1009 hPa | 0 mm | 2.68 m/s, 337° | - | - |
| 1777985247 | 16.67° C | 83% | 1009.1 hPa | 0 mm | 2.24 m/s, 338° | - | - |
* Rain latest hour (hover to see other rain measurements)
** Current wind speed in m/s (hover to see current wind gust speed)